| time (UTC) | temp C | wind direction | speed KPH | gust KPH | rain 1hr cm | rain 24hr cm | rain mn cm | humidity % | barometer mb |
| 20260503213100 | 29 | 42 | 1.6 | 4.8 | 0.00 | 0.00 | 0.00 | 34 | 1013.6 |
| 20260503211605 | 28 | 0 | 0.0 | 6.4 | 0.00 | 0.00 | 0.00 | 38 | 1013.9 |
| 20260503210059 | 28 | 0 | 1.6 | 6.4 | 0.00 | 0.00 | 0.00 | 35 | 1014.0 |
| 20260503204601 | 28 | 57 | 1.6 | 6.4 | 0.00 | 0.00 | 0.00 | 39 | 1014.0 |
| 20260503203101 | 28 | 0 | 1.6 | 6.4 | 0.00 | 0.00 | 0.00 | 31 | 1014.3 |
| 20260503201602 | 28 | 76 | 1.6 | 8.0 | 0.00 | 0.00 | 0.00 | 36 | 1014.4 |
| 20260503200101 | 28 | 44 | 1.6 | 8.0 | 0.00 | 0.00 | 0.00 | 35 | 1014.5 |
| 20260503194601 | 27 | 91 | 1.6 | 4.8 | 0.00 | 0.00 | 0.00 | 39 | 1014.6 |
| 20260503193100 | 27 | 65 | 3.2 | 6.4 | 0.00 | 0.00 | 0.00 | 40 | 1014.7 |
| 20260503191600 | 27 | 40 | 1.6 | 6.4 | 0.00 | 0.00 | 0.00 | 41 | 1015.0 |
| 20260503184608 | 26 | 41 | 1.6 | 4.8 | 0.00 | 0.00 | 0.00 | 40 | 1015.2 |
| 20260503183103 | 26 | 0 | 1.6 | 6.4 | 0.00 | 0.00 | 0.00 | 46 | 1015.5 |
| 20260503181603 | 26 | 46 | 1.6 | 6.4 | 0.00 | 0.00 | 0.00 | 50 | 1015.5 |
| 20260503180058 | 25 | 57 | 0.0 | 6.4 | 0.00 | 0.00 | 0.00 | 49 | 1015.5 |
| 20260503174617 | 25 | 0 | 0.0 | 6.4 | 0.00 | 0.00 | 0.00 | 49 | 1015.6 |
| 20260503173107 | 23 | 68 | 1.6 | 6.4 | 0.00 | 0.00 | 0.00 | 55 | 1015.6 |
| 20260503171603 | 23 | 0 | 0.0 | 6.4 | 0.00 | 0.00 | 0.00 | 56 | 1015.6 |
| 20260503160118 | 18 | 0 | 0.0 | 3.2 | 0.00 | 0.00 | 0.00 | 80 | 1015.8 |
| 20260503150104 | 16 | 0 | 0.0 | 0.0 | 0.00 | 0.00 | 0.00 | 80 | 1015.9 |
| 20260503140106 | 15 | 0 | 0.0 | 0.0 | 0.00 | 0.00 | 0.00 | 83 | 1015.5 |
| 20260503100123 | 16 | 0 | 0.0 | 0.0 | 0.00 | 0.00 | 0.00 | 81 | 1015.9 |
| 20260503081606 | 15 | 0 | 0.0 | 0.0 | 0.00 | 0.00 | 0.00 | 85 | 1016.3 |
| 20260503071559 | 15 | 285 | 1.6 | 4.8 | 0.00 | 0.00 | 0.00 | 90 | 1016.5 |
| 20260503054558 | 16 | 142 | 0.0 | 8.0 | 0.00 | 0.00 | 0.00 | 83 | 1016.5 |
| 20260503053058 | 17 | 148 | 0.0 | 3.2 | 0.00 | 0.00 | 0.00 | 83 | 1016.2 |
| 20260503051558 | 16 | 238 | 1.6 | 6.4 | 0.00 | 0.00 | 0.00 | 84 | 1016.1 |
| 20260503044634 | 16 | 288 | 4.8 | 6.4 | 0.00 | 0.00 | 0.00 | 87 | 1016.2 |
| 20260503043106 | 16 | 0 | 0.0 | 0.0 | 0.00 | 0.00 | 0.00 | 87 | 1016.5 |
| 20260503041557 | 16 | 0 | 0.0 | 0.0 | 0.00 | 0.00 | 0.00 | 88 | 1016.3 |
| 20260503034612 | 15 | 288 | 4.8 | 9.7 | 0.00 | 0.00 | 0.00 | 88 | 1016.1 |
| 20260503033059 | 15 | 281 | 1.6 | 4.8 | 0.00 | 0.00 | 0.00 | 88 | 1016.1 |
| 20260503031557 | 16 | 289 | 0.0 | 6.4 | 0.00 | 0.00 | 0.00 | 87 | 1016.4 |
| 20260503030100 | 16 | 0 | 0.0 | 4.8 | 0.00 | 0.00 | 0.00 | 87 | 1016.6 |
| 20260503024559 | 16 | 0 | 0.0 | 8.0 | 0.00 | 0.00 | 0.00 | 85 | 1016.7 |
| 20260503023059 | 16 | 144 | 1.6 | 9.7 | 0.00 | 0.00 | 0.00 | 85 | 1016.8 |
| 20260503021558 | 17 | 121 | 3.2 | 11.3 | 0.00 | 0.00 | 0.00 | 84 | 1016.7 |
| 20260503020058 | 17 | 117 | 1.6 | 3.2 | 0.00 | 0.00 | 0.00 | 87 | 1016.1 |
| 20260503014610 | 18 | 0 | 0.0 | 0.0 | 0.00 | 0.00 | 0.00 | 82 | 1015.7 |
| 20260503013057 | 18 | 0 | 0.0 | 4.8 | 0.00 | 0.00 | 0.00 | 81 | 1015.7 |
| 20260503011601 | 18 | 162 | 0.0 | 9.7 | 0.00 | 0.00 | 0.00 | 82 | 1015.7 |
| 20260503010059 | 18 | 0 | 0.0 | 0.0 | 0.00 | 0.00 | 0.00 | 84 | 1015.4 |
| 20260503004559 | 18 | 0 | 0.0 | 0.0 | 0.00 | 0.00 | 0.00 | 82 | 1015.6 |
| 20260503003105 | 18 | 0 | 0.0 | 0.0 | 0.00 | 0.00 | 0.00 | 83 | 1015.3 |
| 20260503001612 | 18 | 0 | 0.0 | 0.0 | 0.00 | 0.00 | 0.00 | 75 | 1015.5 |
| 20260502234559 | 18 | 0 | 0.0 | 0.0 | 0.00 | 0.00 | 0.00 | 81 | 1015.7 |
| 20260502231607 | 18 | 0 | 0.0 | 1.6 | 0.00 | 0.00 | 0.00 | 78 | 1016.1 |
| 20260502230059 | 18 | 0 | 0.0 | 0.0 | 0.00 | 0.00 | 0.00 | 80 | 1016.3 |
| 20260502224602 | 18 | 0 | 0.0 | 3.2 | 0.00 | 0.00 | 0.00 | 79 | 1016.3 |
| 20260502223057 | 18 | 154 | 1.6 | 6.4 | 0.00 | 0.00 | 0.00 | 74 | 1016.6 |
| 20260502221600 | 17 | 0 | 0.0 | 6.4 | 0.00 | 0.00 | 0.00 | 78 | 1016.7 |
| 20260502220058 | 17 | 0 | 0.0 | 8.0 | 0.00 | 0.00 | 0.00 | 77 | 1017.1 |
| 20260502214605 | 17 | 0 | 0.0 | 4.8 | 0.00 | 0.00 | 0.00 | 78 | 1017.3 |